カタログに戻る

STARLINK-36172

運用中通信VLEO
NORAD 67020·PAYLOAD·🇺🇸 United States

打ち上げ Dec 10, 2025 から Vandenberg Space Force Base

Loading…

次のパス (今後24時間)

TLE

最新Source: CelesTrak SupGP

元期: Sep 15, 2026, 03:48 UTC

1 67020C 25293T   26258.15881944  .00045561  00000+0  38176-2 0  2584
2 67020  70.0016 336.7362 0003774 268.1141 266.0813 14.98312523    10

AllMySatでSTARLINK-36172をリアルタイム追跡

Download on the App Store